TimeHST,TemperatureF,Dew PointF,Humidity,Sea Level PressureIn,VisibilityMPH,Wind Direction,Wind SpeedMPH,Gust SpeedMPH,PrecipitationIn,Events,Conditions,WindDirDegrees,DateUTC
12:53 AM,73.0,64.9,76,29.98,10.0,ENE,3.5,-,N/A,,Partly Cloudy,70,2012-11-25 10:53:00
1:53 AM,71.1,66.0,84,29.97,10.0,Calm,Calm,-,N/A,,Partly Cloudy,0,2012-11-25 11:53:00
2:53 AM,70.0,66.0,87,29.97,10.0,Calm,Calm,-,N/A,,Partly Cloudy,0,2012-11-25 12:53:00
3:53 AM,69.1,66.0,90,29.96,10.0,Calm,Calm,-,N/A,,Partly Cloudy,0,2012-11-25 13:53:00
4:53 AM,69.1,66.0,90,29.97,10.0,WNW,4.6,-,N/A,,Partly Cloudy,300,2012-11-25 14:53:00
5:53 AM,70.0,66.0,87,29.97,10.0,NNW,4.6,-,N/A,,Partly Cloudy,340,2012-11-25 15:53:00
6:53 AM,69.1,66.9,93,29.99,10.0,WNW,3.5,-,N/A,,Partly Cloudy,300,2012-11-25 16:53:00
7:53 AM,73.0,66.9,81,30.01,10.0,NNW,3.5,-,N/A,,Partly Cloudy,330,2012-11-25 17:53:00
8:53 AM,75.9,66.9,74,30.03,10.0,NW,5.8,-,N/A,,Scattered Clouds,320,2012-11-25 18:53:00
9:53 AM,80.1,64.9,60,30.03,10.0,North,6.9,-,N/A,,Scattered Clouds,10,2012-11-25 19:53:00
10:53 AM,79.0,64.9,62,30.02,10.0,NNE,10.4,-,N/A,,Mostly Cloudy,30,2012-11-25 20:53:00
11:53 AM,80.1,64.0,58,29.99,10.0,NNE,13.8,-,N/A,,Scattered Clouds,30,2012-11-25 21:53:00
12:53 PM,79.0,66.0,64,29.96,10.0,NNE,13.8,21.9,N/A,,Scattered Clouds,30,2012-11-25 22:53:00
1:53 PM,78.1,64.0,62,29.93,10.0,NNE,12.7,-,N/A,,Scattered Clouds,30,2012-11-25 23:53:00
2:53 PM,80.1,64.0,58,29.92,10.0,North,17.3,25.3,N/A,,Scattered Clouds,360,2012-11-26 00:53:00
3:53 PM,78.1,63.0,60,29.93,10.0,North,16.1,26.5,N/A,,Scattered Clouds,360,2012-11-26 01:53:00
4:53 PM,77.0,62.1,60,29.94,10.0,North,12.7,23.0,N/A,,Scattered Clouds,10,2012-11-26 02:53:00
5:53 PM,75.9,62.1,62,29.96,10.0,NNE,8.1,-,N/A,,Mostly Cloudy,30,2012-11-26 03:53:00
6:53 PM,75.9,62.1,62,29.98,10.0,NE,5.8,-,N/A,,Mostly Cloudy,50,2012-11-26 04:53:00
7:53 PM,75.0,62.1,64,29.99,10.0,NNE,16.1,23.0,N/A,,Mostly Cloudy,20,2012-11-26 05:53:00
8:53 PM,75.0,64.0,69,30.01,10.0,NNE,6.9,-,N/A,,Mostly Cloudy,30,2012-11-26 06:53:00
9:53 PM,75.0,63.0,66,30.01,10.0,NE,6.9,-,N/A,,Mostly Cloudy,40,2012-11-26 07:53:00
10:53 PM,73.9,64.0,71,30.01,10.0,NE,4.6,-,N/A,,Scattered Clouds,50,2012-11-26 08:53:00
11:53 PM,75.0,64.9,71,30.01,10.0,ENE,6.9,-,N/A,,Mostly Cloudy,70,2012-11-26 09:53:00